Tracking 19709 objects as of 19-Jun-2019
HD Live streaming from Space Station
objects crossing your sky now

COSMOS 1030 DEB

Track COSMOS 1030 DEB now!


NORAD ID: 39447
Int'l Code: 1978-083T
Perigee: 4,073.6 km
Apogee: 36,334.1 km
Inclination: 68.0 °
Period: 718.6 minutes
Semi major axis: 26574 km
RCS: Unknown
Launch date: September 6, 1978
Source: Commonwealth of Independent States (former USSR) (CIS)
Launch site: PLESETSK MISSILE AND SPACE COMPLEX (PKMTR)

Note: This is SATELLITE DEBRIS
aabbcc
Your satellite tracking list
Your tracking list is empty




NASA's NSSDC Master Catalog

Two Line Element Set (TLE):
1 39447U 78083T   19168.33608025  .00000446  00000-0  00000+0 0  9998
2 39447  67.9894  46.6365 6069737  34.3276 353.1730  2.00399515 40768
Source of the keplerian elements: AFSPC